EW6606 Weather Reports


Display with metric or nautical units.
time (UTC)temp
F
wind
direction
speed
MPH
gust
MPH
rain 1hr
in
rain 24hr
in
rain mn
in
humidity
%
barometer
mb
20260505060032 62 122 2.0 3.0 0.00 0.00 0.00 66 1014.5
20260505055527 62 123 1.0 3.0 0.00 0.00 0.00 65 1014.4
20260505055024 62 107 2.0 2.0 0.00 0.00 0.00 65 1014.6
20260505054522 62 106 1.0 3.0 0.00 0.00 0.00 64 1014.6
20260505054020 62 119 2.0 2.0 0.00 0.00 0.00 64 1014.8
20260505053517 62 96 1.0 2.0 0.00 0.00 0.00 63 1015.0
20260505053013 62 119 1.0 2.0 0.00 0.00 0.00 63 1014.8
20260505052510 62 98 1.0 2.0 0.00 0.00 0.00 63 1014.6
20260505052008 62 115 2.0 2.0 0.00 0.00 0.00 63 1014.6
20260505051504 62 111 1.0 2.0 0.00 0.00 0.00 63 1014.3
20260505051003 63 96 0.0 2.0 0.00 0.00 0.00 63 1014.3
20260505050500 63 87 1.0 2.0 0.00 0.00 0.00 63 1014.3
20260505041428 61 89 0.0 1.0 0.00 0.00 0.00 67 1014.2
20260505040925 61 121 2.0 3.0 0.00 0.00 0.00 67 1014.3
20260505040423 61 119 2.0 2.0 0.00 0.00 0.00 67 1014.3
20260505035919 62 103 1.0 2.0 0.00 0.00 0.00 67 1014.5
20260505035415 62 92 1.0 2.0 0.00 0.00 0.00 67 1014.3
20260505034913 62 102 0.0 2.0 0.00 0.00 0.00 66 1014.2
20260505034409 62 112 0.0 1.0 0.00 0.00 0.00 66 1014.1
20260505033906 62 116 0.0 1.0 0.00 0.00 0.00 65 1014.4
20260505033403 62 121 1.0 2.0 0.00 0.00 0.00 65 1014.2
20260505032901 62 111 1.0 2.0 0.00 0.00 0.00 65 1014.3
20260505032357 62 138 2.0 2.0 0.00 0.00 0.00 65 1014.2
20260505031854 62 113 2.0 2.0 0.00 0.00 0.00 65 1014.1
20260505031351 62 92 1.0 2.0 0.00 0.00 0.00 65 1014.1
20260505030848 62 110 1.0 2.0 0.00 0.00 0.00 66 1014.3
20260505030344 62 122 2.0 2.0 0.00 0.00 0.00 67 1014.2
20260505025840 62 109 1.0 2.0 0.00 0.00 0.00 69 1014.2
20260505025338 61 124 0.0 2.0 0.00 0.00 0.00 70 1014.1
20260505024836 61 114 1.0 2.0 0.00 0.00 0.00 71 1014.1
20260505024334 61 109 2.0 2.0 0.00 0.00 0.00 71 1014.2
20260505023830 62 130 2.0 2.0 0.00 0.00 0.00 70 1014.3
20260505023327 62 117 2.0 2.0 0.00 0.00 0.00 70 1014.3
20260505022825 62 118 1.0 2.0 0.00 0.00 0.00 70 1014.5
20260505022321 62 120 1.0 2.0 0.00 0.00 0.00 69 1014.2
20260505021819 62 128 1.0 2.0 0.00 0.00 0.00 67 1014.2
20260505021315 63 114 2.0 2.0 0.00 0.00 0.00 66 1014.2
20260505020811 64 105 1.0 2.0 0.00 0.00 0.00 63 1014.1
20260505020307 64 119 2.0 2.0 0.00 0.00 0.00 63 1014.0
20260505015804 64 105 1.0 2.0 0.00 0.00 0.00 63 1013.9
20260505015301 64 109 1.0 2.0 0.00 0.00 0.00 62 1014.0
20260505014758 64 129 0.0 1.0 0.00 0.00 0.00 61 1013.8
20260505014255 65 112 1.0 2.0 0.00 0.00 0.00 60 1013.7
20260505013751 66 119 1.0 2.0 0.00 0.00 0.00 58 1013.9
20260505013249 67 121 0.0 2.0 0.00 0.00 0.00 56 1013.8
20260505012747 67 62 0.0 0.0 0.00 0.00 0.00 56 1013.9
20260505012244 67 62 0.0 1.0 0.00 0.00 0.00 56 1013.9
20260505011739 68 50 0.0 1.0 0.00 0.00 0.00 56 1013.8
20260505011237 68 117 0.0 1.0 0.00 0.00 0.00 55 1013.7
20260505010732 68 118 1.0 2.0 0.00 0.00 0.00 55 1013.7
20260505010229 68 146 1.0 2.0 0.00 0.00 0.00 54 1013.5
20260505005726 68 121 1.0 2.0 0.00 0.00 0.00 54 1013.5
20260505005223 69 117 2.0 2.0 0.00 0.00 0.00 52 1013.4
20260505004720 69 129 2.0 2.0 0.00 0.00 0.00 51 1013.5
20260505004216 70 122 2.0 3.0 0.00 0.00 0.00 50 1013.7
20260505003713 71 125 1.0 1.0 0.00 0.00 0.00 48 1013.4
20260505003211 71 128 1.0 2.0 0.00 0.00 0.00 48 1013.4
20260505002707 71 137 1.0 2.0 0.00 0.00 0.00 47 1013.4
20260505002205 72 127 1.0 2.0 0.00 0.00 0.00 47 1013.4
20260505001702 72 130 1.0 2.0 0.00 0.00 0.00 46 1013.4
20260505001159 73 106 0.0 1.0 0.00 0.00 0.00 46 1013.2
20260505000656 73 130 1.0 3.0 0.00 0.00 0.00 46 1013.2
20260505000154 73 126 1.0 3.0 0.00 0.00 0.00 45 1013.4
20260504235650 74 135 0.0 3.0 0.00 0.00 0.00 45 1013.2
20260504235147 74 135 1.0 2.0 0.00 0.00 0.00 45 1013.5
20260504234644 74 113 0.0 2.0 0.00 0.00 0.00 44 1013.5
20260504234142 75 141 0.0 1.0 0.00 0.00 0.00 44 1013.6
20260504233637 75 124 0.0 2.0 0.00 0.00 0.00 44 1013.6
20260504233133 75 127 0.0 2.0 0.00 0.00 0.00 43 1013.5
20260504232631 75 106 0.0 2.0 0.00 0.00 0.00 43 1013.7
20260504232127 76 0 1.0 2.0 0.00 0.00 0.00 43 1013.7
20260504231624 76 126 1.0 3.0 0.00 0.00 0.00 42 1013.8
20260504231121 76 132 0.0 3.0 0.00 0.00 0.00 42 1013.6
20260504230617 76 95 2.0 3.0 0.00 0.00 0.00 40 1013.9
20260504230116 76 109 1.0 5.0 0.00 0.00 0.00 40 1013.8
20260504225614 76 108 2.0 3.0 0.00 0.00 0.00 41 1013.7
20260504225110 76 157 0.0 2.0 0.00 0.00 0.00 41 1013.7
20260504224606 76 166 0.0 3.0 0.00 0.00 0.00 41 1013.8
20260504224103 77 157 2.0 3.0 0.00 0.00 0.00 40 1014.0
20260504223600 77 338 2.0 4.0 0.00 0.00 0.00 41 1014.0
20260504223056 77 129 0.0 3.0 0.00 0.00 0.00 40 1014.0
20260504222553 77 173 3.0 4.0 0.00 0.00 0.00 40 1014.2
20260504222050 77 159 0.0 6.0 0.00 0.00 0.00 40 1014.0
20260504221548 77 112 0.0 3.0 0.00 0.00 0.00 42 1014.1
20260504221044 77 171 2.0 2.0 0.00 0.00 0.00 42 1014.1
20260504220541 77 205 0.0 3.0 0.00 0.00 0.00 42 1014.0
20260504220038 77 260 0.0 4.0 0.00 0.00 0.00 42 1014.1
20260504215534 77 147 0.0 3.0 0.00 0.00 0.00 42 1014.1
20260504215032 77 144 2.0 4.0 0.00 0.00 0.00 41 1014.1
20260504214527 77 135 2.0 5.0 0.00 0.00 0.00 42 1014.1
20260504214024 77 19 2.0 6.0 0.00 0.00 0.00 44 1013.9
20260504213521 77 359 3.0 4.0 0.00 0.00 0.00 43 1014.2
20260504213018 77 77 2.0 7.0 0.00 0.00 0.00 42 1014.3
20260504212514 77 167 1.0 4.0 0.00 0.00 0.00 42 1014.1
20260504212011 77 115 2.0 5.0 0.00 0.00 0.00 40 1014.2
20260504211508 77 149 3.0 5.0 0.00 0.00 0.00 41 1014.3
20260504211005 77 179 2.0 6.0 0.00 0.00 0.00 41 1014.2
20260504210502 77 181 1.0 7.0 0.00 0.00 0.00 41 1014.4
20260504205959 78 359 1.0 3.0 0.00 0.00 0.00 42 1014.4
20260504205456 78 150 1.0 3.0 0.00 0.00 0.00 42 1014.5
20260504204955 78 141 2.0 3.0 0.00 0.00 0.00 42 1014.5
20260504204452 78 272 3.0 5.0 0.00 0.00 0.00 43 1014.4
20260504203951 78 76 2.0 3.0 0.00 0.00 0.00 43 1014.5
20260504203449 78 112 2.0 4.0 0.00 0.00 0.00 43 1014.8
20260504202945 78 138 2.0 4.0 0.00 0.00 0.00 42 1014.8
20260504202441 78 243 1.0 5.0 0.00 0.00 0.00 43 1014.5
20260504201938 78 341 0.0 3.0 0.00 0.00 0.00 43 1014.6
20260504201435 78 302 2.0 5.0 0.00 0.00 0.00 43 1014.6
20260504200933 78 126 2.0 3.0 0.00 0.00 0.00 43 1014.6
20260504200429 77 113 1.0 3.0 0.00 0.00 0.00 44 1014.8
20260504195926 77 89 0.0 2.0 0.00 0.00 0.00 44 1014.9
20260504195422 77 158 1.0 3.0 0.00 0.00 0.00 44 1015.0
20260504194919 78 112 1.0 4.0 0.00 0.00 0.00 43 1015.1
20260504194414 78 350 0.0 3.0 0.00 0.00 0.00 43 1015.0
20260504193911 77 209 0.0 7.0 0.00 0.00 0.00 43 1015.0
20260504193408 77 163 0.0 4.0 0.00 0.00 0.00 41 1015.4
20260504192907 77 129 3.0 6.0 0.00 0.00 0.00 41 1015.4
20260504192404 77 112 3.0 3.0 0.00 0.00 0.00 44 1015.3
20260504191902 77 127 1.0 5.0 0.00 0.00 0.00 45 1015.4
20260504191400 77 112 3.0 4.0 0.00 0.00 0.00 45 1015.5
20260504190855 77 168 2.0 2.0 0.00 0.00 0.00 46 1015.6
20260504190351 76 105 2.0 4.0 0.00 0.00 0.00 45 1015.7
20260504185848 76 117 0.0 7.0 0.00 0.00 0.00 42 1015.7
20260504185345 77 190 2.0 5.0 0.00 0.00 0.00 44 1015.7
20260504184841 77 114 2.0 3.0 0.00 0.00 0.00 44 1015.6
20260504184337 76 286 3.0 5.0 0.00 0.00 0.00 45 1015.8
20260504183833 76 180 3.0 6.0 0.00 0.00 0.00 45 1015.9
20260504183331 76 138 0.0 4.0 0.00 0.00 0.00 45 1016.0
20260504182828 76 154 3.0 3.0 0.00 0.00 0.00 44 1016.1
20260504182325 76 142 1.0 4.0 0.00 0.00 0.00 46 1016.2
20260504181822 76 166 1.0 2.0 0.00 0.00 0.00 46 1016.3
20260504181320 75 191 0.0 1.0 0.00 0.00 0.00 46 1016.4
20260504180819 75 117 2.0 5.0 0.00 0.00 0.00 45 1016.4
20260504180317 76 153 2.0 6.0 0.00 0.00 0.00 44 1016.5
20260504175814 76 217 2.0 4.0 0.00 0.00 0.00 45 1016.5
20260504175311 76 144 2.0 5.0 0.00 0.00 0.00 48 1016.5
20260504174809 76 330 1.0 4.0 0.00 0.00 0.00 49 1016.5
20260504174306 75 283 0.0 2.0 0.00 0.00 0.00 48 1016.7
20260504173803 75 278 2.0 4.0 0.00 0.00 0.00 47 1016.7
20260504173300 75 220 1.0 4.0 0.00 0.00 0.00 48 1016.9
20260504172756 75 10 3.0 4.0 0.00 0.00 0.00 47 1016.9
20260504172253 75 313 3.0 9.0 0.00 0.00 0.00 49 1017.0
20260504171749 74 114 0.0 2.0 0.00 0.00 0.00 49 1017.0
20260504171246 75 124 0.0 3.0 0.00 0.00 0.00 48 1017.2
20260504170743 75 261 2.0 5.0 0.00 0.00 0.00 50 1017.1
20260504170241 74 141 0.0 2.0 0.00 0.00 0.00 49 1017.2
20260504160159 72 84 0.0 4.0 0.00 0.00 0.00 52 1018.0
20260504151127 69 182 3.0 6.0 0.00 0.00 0.00 60 1017.8
20260504150624 69 123 2.0 3.0 0.00 0.00 0.00 60 1018.0
20260504150121 68 114 0.0 3.0 0.00 0.00 0.00 60 1017.9
20260504141049 65 216 2.0 2.0 0.00 0.00 0.00 66 1018.2
20260504140546 64 241 1.0 3.0 0.00 0.00 0.00 65 1018.4
20260504130510 57 132 2.0 3.0 0.00 0.00 0.00 82 1018.2
20260504110358 48 104 1.0 2.0 0.00 0.00 0.00 89 1017.5
20260504100315 48 69 0.0 2.0 0.00 0.00 0.00 88 1017.7
20260504081708 49 102 1.0 2.0 0.00 0.00 0.00 86 1017.7
20260504081205 49 110 1.0 2.0 0.00 0.00 0.00 86 1017.8
20260504080701 49 112 1.0 1.0 0.00 0.00 0.00 86 1017.7
20260504080157 49 104 0.0 1.0 0.00 0.00 0.00 86 1017.8
20260504070125 50 111 0.0 1.0 0.00 0.00 0.00 85 1018.2